FWV10 LYTV-LGSK

Flight info

Callsign FWV10
Flight time 0h 53m
Altitude 33000
Route LASTI DCT PETAK DCT DOBAR DCT TALAS UN130 TSL
Aircraft A320/M-SDE3FGHIRWY/LB1

Departure

Time 2026-05-07 13:09
Airport Tivat Airport (LYTV)

Arrival

Time 2026-05-07 14:02
Airport Skiathos Island National Airport (LGSK)
Time Latitude Longitude Altitude Speed Heading
2026-05-07 13:01 42.41084 18.71847 39 ft 0 kts 177°
2026-05-07 13:04 42.41082 18.71847 39 ft 3 kts 177°
2026-05-07 13:04 42.41031 18.71870 41 ft 8 kts 176°
2026-05-07 13:05 42.40986 18.71835 41 ft 11 kts 225°
2026-05-07 13:05 42.40895 18.71829 41 ft 21 kts 143°
2026-05-07 13:05 42.40738 18.72009 40 ft 23 kts 139°
2026-05-07 13:05 42.40618 18.72153 39 ft 22 kts 139°
2026-05-07 13:06 42.40540 18.72245 40 ft 22 kts 139°
2026-05-07 13:06 42.40425 18.72381 40 ft 22 kts 139°
2026-05-07 13:06 42.40310 18.72515 42 ft 22 kts 139°
2026-05-07 13:06 42.40194 18.72654 41 ft 23 kts 138°
2026-05-07 13:07 42.40078 18.72792 39 ft 22 kts 139°
2026-05-07 13:07 42.39960 18.72930 38 ft 23 kts 139°
2026-05-07 13:07 42.39842 18.73070 38 ft 22 kts 139°
2026-05-07 13:07 42.39727 18.73206 39 ft 22 kts 139°
2026-05-07 13:08 42.39627 18.73290 39 ft 7 kts 98°
2026-05-07 13:08 42.39652 18.73289 39 ft 7 kts 333°
2026-05-07 13:08 42.39686 18.73250 39 ft 6 kts 319°
2026-05-07 13:08 42.39737 18.73190 39 ft 29 kts 320°
2026-05-07 13:09 42.40100 18.72766 40 ft 104 kts 319°
2026-05-07 13:09 42.40797 18.71941 42 ft 160 kts 319°
2026-05-07 13:09 42.41670 18.70897 517 ft 169 kts 318°
2026-05-07 13:09 42.42281 18.69575 1185 ft 169 kts 279°
2026-05-07 13:10 42.42122 18.68028 1842 ft 171 kts 240°
2026-05-07 13:10 42.41265 18.66848 2177 ft 187 kts 213°
2026-05-07 13:10 42.40149 18.65754 2423 ft 210 kts 212°
2026-05-07 13:10 42.38916 18.64542 2878 ft 225 kts 212°
2026-05-07 13:11 42.37463 18.63601 3351 ft 241 kts 187°
2026-05-07 13:11 42.35784 18.63805 4052 ft 249 kts 158°
2026-05-07 13:11 42.34349 18.65167 4837 ft 258 kts 139°
2026-05-07 13:11 42.33015 18.66827 5624 ft 263 kts 141°
2026-05-07 13:12 42.31620 18.68473 6414 ft 268 kts 142°
2026-05-07 13:12 42.30191 18.70134 7154 ft 274 kts 142°
2026-05-07 13:12 42.28728 18.71828 7885 ft 279 kts 142°
2026-05-07 13:12 42.27245 18.73552 8640 ft 284 kts 142°
2026-05-07 13:13 42.25741 18.75304 9399 ft 288 kts 142°
2026-05-07 13:13 42.24219 18.77083 10148 ft 291 kts 143°
2026-05-07 13:13 42.22644 18.78922 10507 ft 310 kts 143°
2026-05-07 13:13 42.20949 18.80895 10693 ft 334 kts 143°
2026-05-07 13:14 42.19141 18.83006 10976 ft 351 kts 143°
2026-05-07 13:14 42.17281 18.85186 11569 ft 358 kts 143°
2026-05-07 13:14 42.15390 18.87405 12196 ft 363 kts 143°
2026-05-07 13:14 42.13469 18.89662 12820 ft 368 kts 143°
2026-05-07 13:15 42.11527 18.91943 13430 ft 373 kts 143°
2026-05-07 13:15 42.09556 18.94254 14032 ft 378 kts 143°
2026-05-07 13:15 42.07556 18.96593 14594 ft 382 kts 143°
2026-05-07 13:15 42.05539 18.98945 15184 ft 385 kts 143°
2026-05-07 13:16 42.03503 19.01315 15766 ft 388 kts 143°
2026-05-07 13:16 42.01452 19.03699 16336 ft 391 kts 143°
2026-05-07 13:16 41.99386 19.06101 16913 ft 394 kts 143°
2026-05-07 13:16 41.97304 19.08518 17486 ft 397 kts 143°
2026-05-07 13:17 41.95207 19.10950 18036 ft 400 kts 143°
2026-05-07 13:17 41.93092 19.13404 18537 ft 403 kts 143°
2026-05-07 13:17 41.90963 19.15875 19006 ft 406 kts 143°
2026-05-07 13:17 41.88817 19.18358 19479 ft 408 kts 143°
2026-05-07 13:18 41.86659 19.20851 19954 ft 411 kts 143°
2026-05-07 13:18 41.84482 19.23363 20421 ft 414 kts 143°
2026-05-07 13:18 41.82293 19.25885 20876 ft 416 kts 143°
2026-05-07 13:18 41.80094 19.28420 21318 ft 419 kts 143°
2026-05-07 13:19 41.78047 19.31244 21751 ft 427 kts 133°
2026-05-07 13:19 41.76368 19.34552 22183 ft 434 kts 122°
2026-05-07 13:19 41.75032 19.38136 22614 ft 437 kts 119°
2026-05-07 13:19 41.73694 19.41802 23031 ft 440 kts 119°
2026-05-07 13:20 41.72340 19.45492 23453 ft 442 kts 120°
2026-05-07 13:20 41.70974 19.49192 23851 ft 443 kts 119°
2026-05-07 13:20 41.69605 19.52892 24208 ft 445 kts 119°
2026-05-07 13:20 41.68224 19.56612 24574 ft 446 kts 119°
2026-05-07 13:21 41.66841 19.60334 24911 ft 448 kts 119°
2026-05-07 13:21 41.65448 19.64082 25242 ft 450 kts 120°
2026-05-07 13:21 41.64052 19.67839 25577 ft 453 kts 120°
2026-05-07 13:21 41.62651 19.71612 25907 ft 455 kts 120°
2026-05-07 13:22 41.61239 19.75404 26227 ft 457 kts 120°
2026-05-07 13:22 41.59820 19.79210 26562 ft 458 kts 120°
2026-05-07 13:22 41.58394 19.83022 26895 ft 460 kts 120°
2026-05-07 13:22 41.56962 19.86847 27261 ft 461 kts 120°
2026-05-07 13:23 41.55529 19.90681 27564 ft 462 kts 120°
2026-05-07 13:23 41.54090 19.94528 27891 ft 464 kts 120°
2026-05-07 13:23 41.52645 19.98386 28212 ft 466 kts 120°
2026-05-07 13:23 41.51192 20.02254 28463 ft 467 kts 120°
2026-05-07 13:24 41.49731 20.06135 28760 ft 469 kts 120°
2026-05-07 13:24 41.48263 20.10029 29048 ft 471 kts 120°
2026-05-07 13:24 41.46791 20.13933 29318 ft 472 kts 120°
2026-05-07 13:24 41.45309 20.17845 29623 ft 473 kts 120°
2026-05-07 13:25 41.43820 20.21771 29936 ft 474 kts 120°
2026-05-07 13:25 41.42336 20.25690 30315 ft 473 kts 120°
2026-05-07 13:25 41.40855 20.29604 30642 ft 472 kts 120°
2026-05-07 13:25 41.39377 20.33511 30944 ft 472 kts 120°
2026-05-07 13:26 41.37896 20.37412 31199 ft 473 kts 120°
2026-05-07 13:26 41.36405 20.41316 31425 ft 474 kts 120°
2026-05-07 13:26 41.34906 20.45228 31675 ft 474 kts 120°
2026-05-07 13:26 41.33524 20.49220 31968 ft 477 kts 113°
2026-05-07 13:27 41.32569 20.53452 32306 ft 479 kts 105°
2026-05-07 13:27 41.31829 20.57768 32615 ft 478 kts 105°
2026-05-07 13:27 41.31084 20.62079 32919 ft 478 kts 105°
2026-05-07 13:27 41.30335 20.66392 33128 ft 478 kts 105°
2026-05-07 13:28 41.28833 20.75004 33162 ft 477 kts 105°
2026-05-07 13:28 41.27317 20.83592 33159 ft 476 kts 105°
2026-05-07 13:29 41.25802 20.92124 33156 ft 474 kts 105°
2026-05-07 13:29 41.24287 21.00636 33153 ft 473 kts 106°
2026-05-07 13:30 41.22780 21.09080 33136 ft 473 kts 106°
2026-05-07 13:30 41.21259 21.17576 33125 ft 472 kts 106°
2026-05-07 13:31 41.19731 21.26038 33142 ft 471 kts 106°
2026-05-07 13:31 41.18206 21.34489 33146 ft 470 kts 106°
2026-05-07 13:32 41.16673 21.42906 33145 ft 469 kts 106°
2026-05-07 13:32 41.15132 21.51311 33140 ft 469 kts 106°
2026-05-07 13:33 41.13591 21.59728 33139 ft 469 kts 106°
2026-05-07 13:33 41.11902 21.68057 33137 ft 465 kts 116°
2026-05-07 13:34 41.10317 21.71751 33134 ft 458 kts 131°
2026-05-07 13:34 41.05649 21.77277 33125 ft 450 kts 146°
2026-05-07 13:35 41.00680 21.82320 33119 ft 450 kts 146°
2026-05-07 13:35 40.95711 21.87353 33136 ft 449 kts 146°
2026-05-07 13:36 40.90748 21.92378 33141 ft 449 kts 146°
2026-05-07 13:36 40.85783 21.97398 33127 ft 450 kts 146°
2026-05-07 13:37 40.80811 22.02419 33127 ft 450 kts 146°
2026-05-07 13:37 40.75834 22.07432 33127 ft 450 kts 146°
2026-05-07 13:38 40.70854 22.12441 33128 ft 451 kts 146°
2026-05-07 13:38 40.65873 22.17440 33138 ft 449 kts 145°
2026-05-07 13:39 40.60905 22.22419 33145 ft 448 kts 145°
2026-05-07 13:39 40.55951 22.27367 33141 ft 447 kts 145°
2026-05-07 13:40 40.50998 22.32307 33137 ft 446 kts 146°
2026-05-07 13:40 40.46046 22.37238 33130 ft 446 kts 146°
2026-05-07 13:41 40.41098 22.42157 33126 ft 446 kts 146°
2026-05-07 13:41 40.36151 22.47073 33102 ft 446 kts 145°
2026-05-07 13:41 40.33668 22.49534 32873 ft 448 kts 145°
2026-05-07 13:42 40.31173 22.52001 32233 ft 451 kts 145°
2026-05-07 13:42 40.28639 22.54498 31175 ft 459 kts 146°
2026-05-07 13:42 40.26087 22.57011 30366 ft 460 kts 146°
2026-05-07 13:42 40.23543 22.59523 29728 ft 456 kts 146°
2026-05-07 13:43 40.21027 22.62014 29067 ft 451 kts 146°
2026-05-07 13:43 40.18542 22.64474 28463 ft 446 kts 146°
2026-05-07 13:43 40.16073 22.66913 27838 ft 443 kts 146°
2026-05-07 13:43 40.13623 22.69320 27223 ft 439 kts 146°
2026-05-07 13:44 40.11217 22.71679 26640 ft 436 kts 147°
2026-05-07 13:44 40.08797 22.74048 26044 ft 433 kts 147°
2026-05-07 13:44 40.06394 22.76399 25444 ft 431 kts 147°
2026-05-07 13:44 40.04001 22.78739 24852 ft 429 kts 147°
2026-05-07 13:45 40.01621 22.81068 24279 ft 427 kts 147°
2026-05-07 13:45 39.99254 22.83389 23704 ft 425 kts 147°
2026-05-07 13:45 39.96897 22.85700 23109 ft 422 kts 147°
2026-05-07 13:45 39.94566 22.87983 22583 ft 417 kts 147°
2026-05-07 13:46 39.92256 22.90240 22097 ft 413 kts 147°
2026-05-07 13:46 39.89969 22.92473 21607 ft 409 kts 147°
2026-05-07 13:46 39.87705 22.94683 21137 ft 405 kts 147°
2026-05-07 13:46 39.85462 22.96867 20665 ft 401 kts 147°
2026-05-07 13:47 39.83235 22.99027 20202 ft 398 kts 148°
2026-05-07 13:47 39.81024 23.01172 19739 ft 395 kts 148°
2026-05-07 13:47 39.78823 23.03305 19256 ft 394 kts 148°
2026-05-07 13:47 39.76628 23.05429 18779 ft 393 kts 148°
2026-05-07 13:48 39.74443 23.07546 18258 ft 392 kts 148°
2026-05-07 13:48 39.72259 23.09661 17736 ft 391 kts 148°
2026-05-07 13:48 39.70084 23.11764 17240 ft 389 kts 147°
2026-05-07 13:48 39.67918 23.13856 16734 ft 387 kts 147°
2026-05-07 13:49 39.66490 23.15236 16401 ft 386 kts 147°
2026-05-07 13:49 39.64338 23.17313 15899 ft 385 kts 147°
2026-05-07 13:49 39.62192 23.19383 15393 ft 384 kts 147°
2026-05-07 13:49 39.60050 23.21447 14896 ft 383 kts 147°
2026-05-07 13:50 39.57912 23.23505 14382 ft 383 kts 147°
2026-05-07 13:50 39.55772 23.25566 13870 ft 383 kts 147°
2026-05-07 13:50 39.52909 23.28321 13139 ft 382 kts 146°
2026-05-07 13:50 39.51503 23.29676 12798 ft 380 kts 146°
2026-05-07 13:51 39.49388 23.31708 12267 ft 377 kts 146°
2026-05-07 13:51 39.47286 23.33719 11747 ft 375 kts 146°
2026-05-07 13:51 39.45194 23.35720 11266 ft 371 kts 146°
2026-05-07 13:51 39.43160 23.37668 11096 ft 358 kts 146°
2026-05-07 13:52 39.41193 23.39554 10968 ft 345 kts 146°
2026-05-07 13:52 39.39320 23.41353 10831 ft 324 kts 146°
2026-05-07 13:52 39.37573 23.43029 10469 ft 312 kts 146°
2026-05-07 13:52 39.35844 23.44678 9942 ft 306 kts 146°
2026-05-07 13:53 39.34147 23.46291 9776 ft 302 kts 146°
2026-05-07 13:53 39.32458 23.47898 9453 ft 301 kts 146°
2026-05-07 13:53 39.30777 23.49499 9066 ft 300 kts 146°
2026-05-07 13:53 39.29102 23.51095 8669 ft 299 kts 145°
2026-05-07 13:54 39.27441 23.52675 8338 ft 295 kts 145°
2026-05-07 13:54 39.25792 23.54243 7967 ft 293 kts 145°
2026-05-07 13:54 39.24158 23.55796 7568 ft 292 kts 145°
2026-05-07 13:54 39.22530 23.57342 7160 ft 292 kts 145°
2026-05-07 13:55 39.20894 23.58896 6739 ft 291 kts 145°
2026-05-07 13:55 39.19146 23.60133 6335 ft 282 kts 164°
2026-05-07 13:55 39.17265 23.60455 5958 ft 267 kts 185°
2026-05-07 13:55 39.15516 23.59929 5581 ft 253 kts 205°
2026-05-07 13:56 39.13987 23.58938 5233 ft 240 kts 208°
2026-05-07 13:56 39.12526 23.57977 4917 ft 232 kts 207°
2026-05-07 13:56 39.11090 23.57039 4605 ft 232 kts 207°
2026-05-07 13:56 39.09654 23.56101 4299 ft 231 kts 207°
2026-05-07 13:57 39.08225 23.55170 3997 ft 230 kts 207°
2026-05-07 13:57 39.06799 23.54240 3696 ft 230 kts 207°
2026-05-07 13:57 39.05376 23.53312 3398 ft 229 kts 207°
2026-05-07 13:57 39.03955 23.52385 3090 ft 229 kts 207°
2026-05-07 13:58 39.02610 23.51318 2835 ft 226 kts 227°
2026-05-07 13:58 39.01975 23.49553 2656 ft 218 kts 268°
2026-05-07 13:58 39.02347 23.47725 2475 ft 212 kts 306°
2026-05-07 13:58 39.03470 23.46614 2329 ft 198 kts 342°
2026-05-07 13:59 39.04765 23.46542 2156 ft 180 kts 12°
2026-05-07 13:59 39.05936 23.46884 2006 ft 166 kts 13°
2026-05-07 13:59 39.07000 23.47194 1897 ft 151 kts 13°
2026-05-07 13:59 39.08004 23.47488 1762 ft 146 kts 13°
2026-05-07 14:00 39.08981 23.47775 1637 ft 143 kts 13°
2026-05-07 14:00 39.09954 23.48049 1486 ft 143 kts 10°
2026-05-07 14:00 39.10940 23.48148 1311 ft 142 kts
2026-05-07 14:00 39.11922 23.48185 1105 ft 141 kts
2026-05-07 14:01 39.12884 23.48300 917 ft 138 kts
2026-05-07 14:01 39.13820 23.48582 734 ft 139 kts 17°
2026-05-07 14:01 39.14731 23.48988 527 ft 138 kts 19°
2026-05-07 14:01 39.15618 23.49407 308 ft 137 kts 20°
2026-05-07 14:02 39.16500 23.49813 145 ft 132 kts 20°
2026-05-07 14:02 39.17354 23.50209 38 ft 123 kts 17°
2026-05-07 14:02 39.18002 23.50503 46 ft 63 kts 19°
2026-05-07 14:02 39.18331 23.50647 58 ft 35 kts 18°
2026-05-07 14:03 39.18413 23.50663 56 ft 6 kts 34°
2026-05-07 14:03 39.18403 23.50677 56 ft 7 kts 210°
2026-05-07 14:03 39.18340 23.50647 54 ft 12 kts 198°
2026-05-07 14:03 39.18265 23.50615 57 ft 11 kts 198°
2026-05-07 14:04 39.18185 23.50580 54 ft 13 kts 199°
2026-05-07 14:04 39.18075 23.50532 49 ft 18 kts 199°
2026-05-07 14:04 39.17956 23.50472 43 ft 19 kts 217°
2026-05-07 14:04 39.17924 23.50392 42 ft 1 kts 255°
2026-05-07 14:05 39.17923 23.50370 42 ft 5 kts 275°
2026-05-07 14:05 39.17932 23.50320 39 ft 7 kts 286°
2026-05-07 14:05 39.17946 23.50266 39 ft 6 kts 289°
2026-05-07 14:05 39.17950 23.50254 39 ft 0 kts 289°